Weather History for KAMG - February, 2013

Change the Weather History Date:

Tuesday, February 12, 2013

  Actual Average Record
Temperature  
Mean Temperature 62 °F 54 °F  
Max Temperature 64 °F 65 °F 80 °F (1965)
Min Temperature 59 °F 43 °F 21 °F (1955)
Degree Days  
Heating Degree Days 3 12  
Month to date heating degree days 120 150  
Since 1 July heating degree days 971 1239  
Cooling Degree Days 0 0  
Month to date cooling degree days 3 0  
Year to date cooling degree days 27 5  
Growing Degree Days 11 (Base 50)    
Moisture  
Dew Point 58 °F    
Average Humidity 91    
Maximum Humidity 97    
Minimum Humidity 84    
Precipitation  
Precipitation 1.74 in 0.12 in 1.74 in (2013)
Month to date precipitation 3.29 1.60  
Year to date precipitation 3.86 5.86  
Snow  
Snow 0.00 in 0.00 in 0.00 in ()
Month to date snowfall 0.0 0.0  
Since 1 July snowfall 0.0 0.1  
Snow Depth 0.00 in    
Sea Level Pressure  
Sea Level Pressure 29.97 in    
Wind  
Wind Speed 3 mph (NE)    
Max Wind Speed 17 mph    
Max Gust Speed 22 mph    
Visibility 4 miles    
Events Rain , Thunderstorm    
T = Trace of Precipitation, MM = Missing Value Source: NWS Daily Summary

Daily Weather History Graph

Daily Weather History Graph

Search for Another Location

Airport or City:

Trip Planner

Search our weather history database for the weather conditions in past years. The results will help you decide how hot, cold, wet, or windy it might be!

Date:

Astronomy

Feb. 12, 2013 Rise Set
Actual Time 7:14 AM EST 6:14 PM EST
Civil Twilight 6:49 AM EST 6:39 PM EST
Nautical Twilight 6:20 AM EST 7:08 PM EST
Astronomical Twilight 5:52 AM EST 7:36 PM EST
Moon 8:24 AM EST (2/12) 8:58 PM EST (2/12)
Length of Visible Light 11h 50m
Length of Day
11h 00m
Waxing Crescent, 7% of the Moon is Illuminated
Feb 12
Waxing Crescent
Feb 17
First Quarter
Feb 25
Full
Mar 4
Last Quarter
Mar 11
New

Hourly Weather History & Observations

Time (EST) Temp. Dew Point Humidity Pressure Visibility Wind Dir Wind Speed Gust Speed Precip Events Conditions
12:53 AM 61.0 °F 59.0 °F 93% 30.09 in 4.0 mi Calm Calm - N/A Rain Rain
1:53 AM 61.0 °F 59.0 °F 93% 30.06 in 4.0 mi ESE 6.9 mph - N/A Rain Rain
2:53 AM 60.1 °F 57.9 °F 93% 30.05 in 5.0 mi Calm Calm - N/A Rain Light Rain
3:21 AM 60.8 °F 57.2 °F 88% 30.07 in 4.0 mi Calm Calm - N/A Rain Light Rain
3:49 AM 60.8 °F 57.2 °F 88% 30.06 in 1.8 mi Calm Calm - N/A Rain Heavy Rain
3:53 AM 60.1 °F 57.9 °F 93% 30.06 in 1.8 mi Calm Calm - N/A Rain Heavy Rain
3:59 AM 60.8 °F 57.2 °F 88% 30.06 in 3.0 mi Calm Calm - N/A Rain Rain
4:53 AM 60.1 °F 59.0 °F 96% 30.04 in 4.0 mi Calm Calm - N/A Rain Light Rain
4:58 AM 60.8 °F 59.0 °F 94% 30.04 in 2.5 mi Calm Calm - N/A Rain Heavy Rain
5:11 AM 60.8 °F 57.2 °F 88% 30.04 in 4.0 mi Calm Calm - N/A Rain Light Rain
5:18 AM 60.8 °F 57.2 °F 88% 30.07 in 5.0 mi SW 4.6 mph - N/A Rain Light Rain
5:24 AM 60.8 °F 59.0 °F 94% 30.04 in 1.8 mi Calm Calm - N/A Rain Heavy Rain
5:32 AM 60.8 °F 57.2 °F 88% 30.03 in 2.0 mi East 4.6 mph - N/A Rain Heavy Rain
5:53 AM 60.1 °F 59.0 °F 96% 30.03 in 8.0 mi Calm Calm - N/A   Overcast
6:19 AM 60.8 °F 59.0 °F 94% 30.05 in 1.8 mi Calm Calm - N/A Rain Rain
6:28 AM 60.8 °F 59.0 °F 94% 30.06 in 2.0 mi Calm Calm - N/A Rain Rain
6:37 AM 60.8 °F 59.0 °F 94% 30.06 in 3.0 mi Calm Calm - N/A Rain Light Rain
6:41 AM 60.8 °F 59.0 °F 94% 30.07 in 2.5 mi Calm Calm - N/A Rain Rain
6:53 AM 60.1 °F 59.0 °F 96% 30.06 in 2.5 mi Calm Calm - N/A Rain Light Rain
6:55 AM 60.8 °F 59.0 °F 94% 30.06 in 3.0 mi Calm Calm - N/A Rain Light Rain
7:06 AM 60.8 °F 59.0 °F 94% 30.07 in 4.0 mi North 4.6 mph - N/A Rain Light Rain
7:15 AM 60.8 °F 59.0 °F 94% 30.07 in 4.0 mi NNW 4.6 mph - N/A Rain Light Rain
7:44 AM 60.8 °F 59.0 °F 94% 30.07 in 6.0 mi Calm Calm - N/A   Overcast
7:53 AM 60.1 °F 59.0 °F 96% 30.06 in 5.0 mi Calm Calm - N/A Rain Light Rain
8:35 AM 60.8 °F 57.2 °F 88% 30.10 in 2.5 mi NNW 8.1 mph - N/A Rain Rain
8:53 AM 60.1 °F 57.0 °F 90% 30.09 in 2.5 mi North 5.8 mph - N/A Rain Light Rain
9:00 AM 59.0 °F 57.2 °F 94% 30.10 in 5.0 mi North 8.1 mph - N/A   Overcast
9:07 AM 59.0 °F 57.2 °F 94% 30.10 in 5.0 mi North 5.8 mph - N/A   Overcast
9:53 AM 60.1 °F 57.0 °F 90% 30.09 in 10.0 mi NNE 4.6 mph - N/A   Overcast
10:53 AM - - N/A% 30.09 in - North - - N/A   Overcast
11:53 AM 60.1 °F 57.0 °F 90% 30.06 in 6.0 mi ENE 4.6 mph - N/A   Overcast
12:53 PM 63.0 °F 57.9 °F 84% 30.02 in 10.0 mi Variable 4.6 mph - 0.00 in   Overcast
1:36 PM 62.6 °F 57.2 °F 82% 29.99 in 10.0 mi ESE 5.8 mph - N/A   Overcast
1:53 PM 62.1 °F 57.9 °F 86% 29.97 in 4.0 mi ESE 3.5 mph - 0.00 in Rain Light Rain
2:00 PM 62.6 °F 59.0 °F 88% 29.98 in 1.8 mi East 4.6 mph - 0.02 in Rain Rain
2:10 PM 62.6 °F 59.0 °F 88% 29.98 in 3.0 mi ESE 3.5 mph - 0.03 in Rain Light Rain
2:41 PM 62.6 °F 59.0 °F 88% 29.98 in 4.0 mi Calm Calm - 0.03 in   Overcast
2:53 PM 62.1 °F 60.1 °F 93% 29.97 in 4.0 mi North 3.5 mph - 0.03 in   Overcast
3:53 PM 59.0 °F 57.0 °F 93% 29.95 in 4.0 mi Variable 3.5 mph - 0.01 in Rain Light Rain
4:23 PM 59.0 °F 57.2 °F 94% 29.94 in 5.0 mi Calm Calm - 0.01 in Rain , Thunderstorm Rain
4:44 PM 59.0 °F 57.2 °F 94% 29.94 in 10.0 mi North 4.6 mph - 0.02 in   Overcast
4:53 PM 59.0 °F 57.0 °F 93% 29.94 in 10.0 mi NE 3.5 mph - 0.02 in   Overcast
5:53 PM 59.0 °F 57.0 °F 93% 29.92 in 5.0 mi Calm Calm - N/A   Overcast
6:53 PM 60.1 °F 57.9 °F 93% 29.88 in 5.0 mi East 5.8 mph - N/A   Overcast
7:11 PM 60.8 °F 57.2 °F 88% 29.89 in 3.0 mi ENE 3.5 mph - 0.00 in Rain Light Rain
7:23 PM 60.8 °F 57.2 °F 88% 29.88 in 2.5 mi East 4.6 mph - 0.03 in Rain Light Rain
7:32 PM 60.8 °F 57.2 °F 88% 29.89 in 5.0 mi Calm Calm - 0.03 in   Overcast
7:53 PM 60.1 °F 59.0 °F 96% 29.88 in 2.0 mi East 4.6 mph - 0.03 in   Overcast
8:02 PM 60.8 °F 59.0 °F 94% 29.88 in 1.5 mi ESE 4.6 mph - N/A   Overcast
8:49 PM 60.8 °F 60.8 °F 100% 29.84 in 3.0 mi East 9.2 mph - 0.01 in Rain Light Rain
8:53 PM 61.0 °F 59.0 °F 93% 29.83 in 3.0 mi East 9.2 mph - 0.02 in Rain Light Rain
9:33 PM 60.8 °F 59.0 °F 94% 29.87 in 2.5 mi Variable 5.8 mph 17.3 mph 0.10 in Rain , Thunderstorm Heavy Thunderstorms and Rain
9:41 PM 60.8 °F 59.0 °F 94% 29.82 in 1.0 mi ENE 8.1 mph - 0.29 in Rain , Thunderstorm Heavy Thunderstorms and Rain
9:47 PM 60.8 °F 59.0 °F 94% 29.83 in 2.0 mi Calm Calm - 0.30 in Rain , Thunderstorm Rain
9:50 PM 60.8 °F 59.0 °F 94% 29.84 in 1.8 mi WNW 5.8 mph - 0.34 in Rain Rain
9:53 PM 61.0 °F 59.0 °F 93% 29.84 in 1.5 mi NW 4.6 mph - 0.38 in Rain Heavy Rain
10:10 PM 60.8 °F 59.0 °F 94% 29.86 in 3.0 mi NNE 3.5 mph - 0.06 in Rain Light Rain
10:18 PM 60.8 °F 59.0 °F 94% 29.86 in 3.0 mi Calm Calm - 0.09 in Rain Rain
10:42 PM 60.8 °F 59.0 °F 94% 29.83 in 10.0 mi East 5.8 mph - 0.13 in Thunderstorm Overcast
10:53 PM 60.1 °F 59.0 °F 96% 29.83 in 10.0 mi ENE 4.6 mph - 0.13 in   Overcast
11:02 PM 60.8 °F 59.0 °F 94% 29.81 in 10.0 mi ENE 8.1 mph - N/A   Overcast
11:35 PM 60.8 °F 59.0 °F 94% 29.77 in 6.0 mi East 8.1 mph - 0.01 in Rain , Thunderstorm Light Thunderstorms and Rain
11:53 PM 61.0 °F 59.0 °F 93% 29.78 in 3.0 mi Variable 5.8 mph - 0.08 in Rain , Thunderstorm Rain
11:56 PM 60.8 °F 59.0 °F 94% 29.81 in 1.5 mi West 17.3 mph 21.9 mph 0.13 in Rain Heavy Rain